This is the latest recevied weather packets stored in our database for station/object KD9CCP. If no packets are shown the sender has not sent any weather packets the latest 10 day(s).
| Time | Temp. | Humidity | Pressure | Rain* | Wind** | Luminosity | Snow |
|---|---|---|---|---|---|---|---|
| 1777316737 | 13.33° C | 83% | 1004.8 hPa | 0 mm | - | 44 W/m² | - |
| 1777316433 | 13.33° C | 82% | 1004.8 hPa | 0 mm | - | 26 W/m² | - |
| 1777316130 | 13.33° C | 82% | 1004.9 hPa | 0 mm | - | 69 W/m² | - |
| 1777315829 | 13.33° C | 82% | 1005.2 hPa | 0 mm | - | 45 W/m² | - |
| 1777315527 | 13.89° C | 81% | 1005.2 hPa | 0 mm | - | 26 W/m² | - |
| 1777315224 | 13.89° C | 80% | 1005.7 hPa | 0 mm | - | 14 W/m² | - |
| 1777314921 | 13.89° C | 80% | 1005.9 hPa | 0 mm | - | 26 W/m² | - |
| 1777314617 | 13.89° C | 79% | 1005.8 hPa | 0 mm | - | 19 W/m² | - |
| 1777314314 | 13.89° C | 78% | 1006.2 hPa | 0 mm | - | 11 W/m² | - |
| 1777314011 | 13.89° C | 77% | 1006.1 hPa | 0 mm | - | 11 W/m² | - |
| 1777313708 | 13.89° C | 77% | 1006.2 hPa | 0 mm | - | 8 W/m² | - |
| 1777313406 | 14.44° C | 76% | 1006.1 hPa | 0 mm | - | 21 W/m² | - |
| 1777313102 | 14.44° C | 76% | 1006.4 hPa | 0 mm | - | 29 W/m² | - |
| 1777312798 | 14.44° C | 75% | 1006.4 hPa | 0 mm | - | 41 W/m² | - |
| 1777312495 | 14.44° C | 74% | 1006.8 hPa | 0 mm | - | 65 W/m² | - |
| 1777312192 | 14.44° C | 74% | 1007.3 hPa | 0 mm | - | 65 W/m² | - |
| 1777311890 | 14.44° C | 74% | 1007.4 hPa | 0 mm | - | 112 W/m² | - |
| 1777311586 | 14.44° C | 74% | 1007.5 hPa | 0 mm | - | 88 W/m² | - |
| 1777311284 | 14.44° C | 75% | 1007.6 hPa | 0 mm | - | 83 W/m² | - |
| 1777310982 | 13.89° C | 74% | 1007.8 hPa | 0 mm | - | 81 W/m² | - |
| 1777310679 | 13.89° C | 74% | 1007.9 hPa | 0 mm | - | 98 W/m² | - |
| 1777310376 | 13.89° C | 75% | 1008.1 hPa | 0 mm | - | 127 W/m² | - |
| 1777310073 | 13.89° C | 75% | 1008.3 hPa | 0 mm | - | 178 W/m² | - |
| 1777309772 | 13.89° C | 76% | 1008.3 hPa | 0 mm | - | 145 W/m² | - |
| 1777309469 | 13.89° C | 75% | 1008.6 hPa | 0 mm | - | 97 W/m² | - |
* Rain latest hour (hover to see other rain measurements)
** Current wind speed in m/s (hover to see current wind gust speed)